Find Starlink 36764

NORAD ID: 68963 Int'l Des: 2026-099 Owner: SPXS Country: US Constellation: starlink operational
LEOCIRCULAR

当前视图

正在加载3D地球...

About Starlink 36764

Starlink 36764 (NORAD 68963) is a starlink constellation satellite (v2 mini) launched May 1, 2026 by SPXS of US. It operates in LEO, CIRCULAR orbit with a mass of 575.00 kg.

关于 Starlink 36764

正在加载描述...

即将过境

Passes for default location (London). Set your location on the main map for personalized predictions.

高度历史

Loading altitude history...

两行轨道根数

1 68963U 26099N 26171.32662786 .00004231 00000-0 13634-3 0 9995
2 68963 53.1610 146.6628 0000947 95.7856 264.3255 15.34387391 7753
Epoch: Jun 20, 2026 • Age: 49 hours

当前状态

高度 468.5 km
速度 7.64 km/s
星下点 52.78°N, 175.46°E
发射日期 May 1, 2026
运行时间 0.1 years
类型 internet

技术详情

分类 Payload
质量 575.00 kg
干质量 530.00 kg
总质量 575.00 kg
长度 0.30 m
直径 4.10 m
跨度 29.00 m
形状 Box + pan
制造商 SPXS
平台类型 Starlink V2MO
阶段状态 In Orbit
所有者/国家 SPXS/US

Most Searched